Time,TemperatureF,DewpointF,PressureIn,WindDirection,WindDirectionDegrees,WindSpeedMPH,WindSpeedGustMPH,Humidity,HourlyPrecipIn,Conditions,Clouds,dailyrainin,SolarRadiationWatts/m^2,SoftwareType,DateUTC
2013-08-10 00:01:00,64.0,58.0,29.96,WNW,284,0.0,1.0,81,0.00,,,0.00,0.000000,,2013-08-10 07:01:00,
2013-08-10 00:43:00,64.0,59.0,29.96,WNW,284,0.0,1.0,83,0.00,,,0.00,0.000000,,2013-08-10 07:43:00,
2013-08-10 00:52:00,64.0,59.0,29.96,West,266,1.0,3.0,83,0.00,,,0.00,0.000000,,2013-08-10 07:52:00,
2013-08-10 01:01:00,64.0,59.0,29.96,SSW,203,1.0,3.0,84,0.00,,,0.00,0.000000,,2013-08-10 08:01:00,
2013-08-10 01:21:00,63.0,58.0,29.96,SSW,203,1.0,3.0,85,0.00,,,0.00,0.000000,,2013-08-10 08:21:00,
2013-08-10 01:32:00,63.0,58.0,29.96,SSW,203,1.0,3.0,85,0.00,,,0.00,0.000000,,2013-08-10 08:32:00,
2013-08-10 01:43:00,63.0,58.0,29.96,South,178,1.0,3.0,85,0.00,,,0.00,0.000000,,2013-08-10 08:43:00,
2013-08-10 01:52:00,63.0,59.0,29.96,SSE,159,2.0,5.0,86,0.00,,,0.00,0.000000,,2013-08-10 08:52:00,
2013-08-10 02:02:00,63.0,59.0,29.96,SSE,155,2.0,3.0,86,0.00,,,0.00,0.000000,,2013-08-10 09:02:00,
2013-08-10 02:21:00,63.0,59.0,29.96,SSE,155,0.0,3.0,87,0.00,,,0.00,0.000000,,2013-08-10 09:21:00,
2013-08-10 02:32:00,62.0,58.0,29.96,SSE,155,1.0,3.0,87,0.00,,,0.00,0.000000,,2013-08-10 09:32:00,
2013-08-10 02:52:00,62.0,58.0,29.96,SSE,155,1.0,3.0,88,0.00,,,0.00,0.000000,,2013-08-10 09:52:00,
2013-08-10 03:01:00,62.0,58.0,29.96,SSE,154,1.0,3.0,88,0.00,,,0.00,0.000000,,2013-08-10 10:01:00,
2013-08-10 03:33:00,63.0,59.0,29.97,SSE,157,2.0,5.0,88,0.00,,,0.00,0.000000,,2013-08-10 10:33:00,
2013-08-10 03:52:00,63.0,59.0,29.97,SSE,160,2.0,5.0,87,0.00,,,0.00,0.000000,,2013-08-10 10:52:00,
2013-08-10 04:02:00,63.0,59.0,29.97,SSE,159,3.0,5.0,87,0.00,,,0.00,0.000000,,2013-08-10 11:02:00,
2013-08-10 04:21:00,63.0,58.0,29.96,SSE,161,2.0,3.0,85,0.00,,,0.00,0.000000,,2013-08-10 11:21:00,
2013-08-10 04:33:00,63.0,58.0,29.96,SSE,161,1.0,3.0,85,0.00,,,0.00,0.000000,,2013-08-10 11:33:00,
2013-08-10 04:52:00,63.0,58.0,29.97,SSE,161,1.0,3.0,84,0.00,,,0.00,0.000000,,2013-08-10 11:52:00,
2013-08-10 05:01:00,63.0,58.0,29.96,SSE,160,0.0,2.0,84,0.00,,,0.00,0.000000,,2013-08-10 12:01:00,
2013-08-10 05:21:00,63.0,58.0,29.97,ESE,109,2.0,3.0,84,0.00,,,0.00,0.000000,,2013-08-10 12:21:00,
2013-08-10 05:32:00,63.0,58.0,29.97,ESE,109,0.0,2.0,84,0.00,,,0.00,0.000000,,2013-08-10 12:32:00,
2013-08-10 05:52:00,63.0,58.0,29.98,ESE,109,1.0,3.0,84,0.00,,,0.00,0.000000,,2013-08-10 12:52:00,
2013-08-10 06:01:00,63.0,58.0,29.98,ESE,109,1.0,3.0,84,0.00,,,0.00,0.000000,,2013-08-10 13:01:00,
2013-08-10 06:43:00,63.0,58.0,29.98,SE,142,1.0,3.0,84,0.00,,,0.00,0.000000,,2013-08-10 13:43:00,
2013-08-10 06:52:00,63.0,58.0,29.99,SE,142,0.0,3.0,83,0.00,,,0.00,7.000000,,2013-08-10 13:52:00,
2013-08-10 07:01:00,63.0,58.0,29.99,SE,142,0.0,1.0,84,0.00,,,0.00,14.000000,,2013-08-10 14:01:00,
2013-08-10 07:22:00,63.0,58.0,30.00,SE,142,0.0,1.0,83,0.00,,,0.00,23.000000,,2013-08-10 14:22:00,
2013-08-10 07:32:00,63.0,58.0,30.00,SE,142,1.0,2.0,83,0.00,,,0.00,28.000000,,2013-08-10 14:32:00,
2013-08-10 07:53:00,63.0,57.0,30.00,SE,142,0.0,1.0,82,0.00,,,0.00,46.000000,,2013-08-10 14:53:00,
2013-08-10 08:22:00,64.0,58.0,30.01,SE,142,0.0,2.0,81,0.00,,,0.00,72.000000,,2013-08-10 15:22:00,
2013-08-10 08:33:00,64.0,58.0,30.01,SE,138,1.0,3.0,81,0.00,,,0.00,77.000000,,2013-08-10 15:33:00,
2013-08-10 08:43:00,64.0,58.0,30.02,SE,139,1.0,3.0,81,0.00,,,0.00,83.000000,,2013-08-10 15:43:00,
2013-08-10 08:52:00,64.0,58.0,30.02,South,171,1.0,5.0,81,0.00,,,0.00,91.000000,,2013-08-10 15:52:00,
2013-08-10 09:01:00,64.0,58.0,30.02,South,171,1.0,3.0,80,0.00,,,0.00,109.000000,,2013-08-10 16:01:00,
2013-08-10 09:43:00,65.0,58.0,30.02,SSE,162,4.0,7.0,79,0.00,,,0.00,174.000000,,2013-08-10 16:43:00,
2013-08-10 09:53:00,65.0,58.0,30.02,SSE,151,2.0,5.0,79,0.00,,,0.00,202.000000,,2013-08-10 16:53:00,
2013-08-10 10:02:00,65.0,58.0,30.02,SSE,153,2.0,5.0,78,0.00,,,0.00,258.000000,,2013-08-10 17:02:00,
2013-08-10 10:21:00,65.0,58.0,30.03,South,180,2.0,6.0,77,0.00,,,0.00,330.000000,,2013-08-10 17:21:00,
2013-08-10 10:33:00,66.0,59.0,30.03,South,180,0.0,3.0,77,0.00,,,0.00,362.000000,,2013-08-10 17:33:00,
2013-08-10 10:43:00,67.0,59.0,30.02,SW,232,2.0,7.0,75,0.00,,,0.00,508.000000,,2013-08-10 17:43:00,
2013-08-10 10:52:00,66.0,58.0,30.02,West,261,2.0,8.0,75,0.00,,,0.00,341.000000,,2013-08-10 17:52:00,
2013-08-10 11:01:00,67.0,58.0,30.02,West,264,1.0,5.0,74,0.00,,,0.00,728.000000,,2013-08-10 18:01:00,
2013-08-10 11:23:00,69.0,59.0,30.02,South,185,3.0,5.0,70,0.00,,,0.00,766.000000,,2013-08-10 18:23:00,
2013-08-10 11:32:00,70.0,59.0,30.02,SSW,211,2.0,7.0,68,0.00,,,0.00,788.000000,,2013-08-10 18:32:00,
2013-08-10 11:43:00,70.0,59.0,30.02,SSE,149,2.0,8.0,67,0.00,,,0.00,802.000000,,2013-08-10 18:43:00,
2013-08-10 11:52:00,70.0,59.0,30.02,SSE,163,1.0,7.0,68,0.00,,,0.00,812.000000,,2013-08-10 18:52:00,
2013-08-10 12:01:00,71.0,59.0,30.02,SE,133,5.0,9.0,67,0.00,,,0.00,817.000000,,2013-08-10 19:01:00,
2013-08-10 12:32:00,72.0,60.0,30.01,South,191,4.0,8.0,65,0.00,,,0.00,849.000000,,2013-08-10 19:32:00,
2013-08-10 12:44:00,73.0,59.0,30.01,South,191,5.0,9.0,62,0.00,,,0.00,861.000000,,2013-08-10 19:44:00,
2013-08-10 12:53:00,72.0,58.0,30.00,South,189,2.0,8.0,62,0.00,,,0.00,868.000000,,2013-08-10 19:53:00,
2013-08-10 13:22:00,73.0,59.0,29.99,North,9,4.0,12.0,61,0.00,,,0.00,870.000000,,2013-08-10 20:22:00,
2013-08-10 13:33:00,73.0,59.0,29.99,SW,233,3.0,13.0,61,0.00,,,0.00,867.000000,,2013-08-10 20:33:00,
2013-08-10 13:43:00,74.0,59.0,29.99,SSE,162,6.0,9.0,59,0.00,,,0.00,861.000000,,2013-08-10 20:43:00,
2013-08-10 13:52:00,75.0,59.0,29.99,WSW,245,2.0,9.0,58,0.00,,,0.00,856.000000,,2013-08-10 20:52:00,
2013-08-10 14:01:00,75.0,59.0,29.98,SW,217,5.0,10.0,58,0.00,,,0.00,851.000000,,2013-08-10 21:01:00,
2013-08-10 14:32:00,75.0,59.0,29.98,South,187,6.0,12.0,57,0.00,,,0.00,817.000000,,2013-08-10 21:32:00,
2013-08-10 14:42:00,76.0,59.0,29.98,South,184,5.0,10.0,56,0.00,,,0.00,807.000000,,2013-08-10 21:42:00,
2013-08-10 14:52:00,76.0,59.0,29.98,South,171,5.0,10.0,56,0.00,,,0.00,789.000000,,2013-08-10 21:52:00,
2013-08-10 15:01:00,76.0,59.0,29.98,South,188,4.0,17.0,55,0.00,,,0.00,773.000000,,2013-08-10 22:01:00,
2013-08-10 15:43:00,76.0,58.0,29.96,SSE,165,6.0,9.0,54,0.00,,,0.00,694.000000,,2013-08-10 22:43:00,
2013-08-10 15:52:00,77.0,59.0,29.96,South,191,6.0,9.0,53,0.00,,,0.00,673.000000,,2013-08-10 22:52:00,
2013-08-10 16:22:00,77.0,60.0,29.95,South,171,4.0,8.0,55,0.00,,,0.00,599.000000,,2013-08-10 23:22:00,
2013-08-10 16:32:00,77.0,60.0,29.95,SSW,200,2.0,10.0,55,0.00,,,0.00,570.000000,,2013-08-10 23:32:00,
2013-08-10 16:53:00,77.0,60.0,29.95,South,186,3.0,12.0,56,0.00,,,0.00,519.000000,,2013-08-10 23:53:00,
2013-08-10 17:01:00,77.0,60.0,29.95,South,180,4.0,12.0,56,0.00,,,0.00,489.000000,,2013-08-11 00:01:00,
2013-08-10 17:22:00,75.0,60.0,29.95,South,171,6.0,9.0,59,0.00,,,0.00,427.000000,,2013-08-11 00:22:00,
2013-08-10 17:32:00,75.0,60.0,29.95,SSW,213,5.0,9.0,60,0.00,,,0.00,397.000000,,2013-08-11 00:32:00,
2013-08-10 17:52:00,75.0,61.0,29.94,SSW,203,3.0,10.0,61,0.00,,,0.00,334.000000,,2013-08-11 00:52:00,
2013-08-10 18:01:00,74.0,60.0,29.94,SSW,196,5.0,10.0,61,0.00,,,0.00,301.000000,,2013-08-11 01:01:00,
2013-08-10 18:11:00,74.0,60.0,29.94,South,178,3.0,9.0,62,0.00,,,0.00,272.000000,,2013-08-11 01:11:00,
2013-08-10 18:21:00,74.0,60.0,29.94,SSW,208,3.0,7.0,61,0.00,,,0.00,243.000000,,2013-08-11 01:21:00,
2013-08-10 18:32:00,75.0,60.0,29.94,WNW,293,5.0,8.0,59,0.00,,,0.00,213.000000,,2013-08-11 01:32:00,
2013-08-10 18:42:00,74.0,59.0,29.93,WSW,252,4.0,9.0,59,0.00,,,0.00,181.000000,,2013-08-11 01:42:00,
2013-08-10 18:53:00,74.0,59.0,29.93,West,275,3.0,8.0,60,0.00,,,0.00,148.000000,,2013-08-11 01:53:00,
2013-08-10 19:02:00,73.0,59.0,29.93,West,264,5.0,10.0,61,0.00,,,0.00,102.000000,,2013-08-11 02:02:00,
2013-08-10 19:21:00,73.0,60.0,29.94,WNW,291,6.0,8.0,63,0.00,,,0.00,54.000000,,2013-08-11 02:21:00,
2013-08-10 19:32:00,72.0,59.0,29.94,WSW,258,4.0,8.0,63,0.00,,,0.00,32.000000,,2013-08-11 02:32:00,
2013-08-10 19:43:00,72.0,60.0,29.94,WSW,251,5.0,7.0,65,0.00,,,0.00,16.000000,,2013-08-11 02:43:00,
2013-08-10 19:53:00,71.0,59.0,29.94,West,264,3.0,7.0,66,0.00,,,0.00,7.000000,,2013-08-11 02:53:00,
2013-08-10 20:02:00,70.0,59.0,29.94,West,276,5.0,9.0,68,0.00,,,0.00,0.000000,,2013-08-11 03:02:00,
2013-08-10 20:22:00,69.0,59.0,29.95,West,268,3.0,8.0,70,0.00,,,0.00,0.000000,,2013-08-11 03:22:00,
2013-08-10 20:52:00,67.0,59.0,29.96,West,271,5.0,7.0,75,0.00,,,0.00,0.000000,,2013-08-11 03:52:00,
2013-08-10 21:01:00,67.0,59.0,29.96,West,277,5.0,7.0,76,0.00,,,0.00,0.000000,,2013-08-11 04:01:00,
2013-08-10 21:22:00,67.0,60.0,29.96,WNW,284,3.0,5.0,77,0.00,,,0.00,0.000000,,2013-08-11 04:22:00,
2013-08-10 21:32:00,67.0,60.0,29.96,West,278,2.0,5.0,78,0.00,,,0.00,0.000000,,2013-08-11 04:32:00,
2013-08-10 21:42:00,66.0,59.0,29.97,West,277,1.0,3.0,78,0.00,,,0.00,0.000000,,2013-08-11 04:42:00,
2013-08-10 21:53:00,66.0,59.0,29.97,West,281,2.0,5.0,79,0.00,,,0.00,0.000000,,2013-08-11 04:53:00,
2013-08-10 22:02:00,66.0,59.0,29.97,West,280,2.0,5.0,79,0.00,,,0.00,0.000000,,2013-08-11 05:02:00,
2013-08-10 22:22:00,66.0,60.0,29.97,West,281,2.0,3.0,80,0.00,,,0.00,0.000000,,2013-08-11 05:22:00,
2013-08-10 22:33:00,66.0,60.0,29.97,West,281,2.0,3.0,80,0.00,,,0.00,0.000000,,2013-08-11 05:33:00,
2013-08-10 22:43:00,65.0,59.0,29.97,West,281,1.0,3.0,80,0.00,,,0.00,0.000000,,2013-08-11 05:43:00,
2013-08-10 22:52:00,65.0,59.0,29.97,West,281,1.0,3.0,81,0.00,,,0.00,0.000000,,2013-08-11 05:52:00,
2013-08-10 23:01:00,65.0,59.0,29.96,West,281,2.0,3.0,81,0.00,,,0.00,0.000000,,2013-08-11 06:01:00,
2013-08-10 23:32:00,65.0,59.0,29.97,West,281,1.0,3.0,81,0.00,,,0.00,0.000000,,2013-08-11 06:32:00,
2013-08-10 23:53:00,65.0,59.0,29.97,West,281,1.0,3.0,82,0.00,,,0.00,0.000000,,2013-08-11 06:53:00,